Overview Statistics Trail Chart Weather Telemetry Raw packets
 

This is the latest recevied weather packets stored in our database for station/object OM5ZU-10. If no packets are shown the sender has not sent any weather packets the latest 10 day(s).

<< 19 20 21 22 23 24 25 >>
Time Temp. Humidity Pressure Rain* Wind** Luminosity Snow
1788118495 18.33° C 66% 1014.9 hPa - - - -
1788117595 18.89° C 64% 1014.9 hPa - - - -
1788116695 19.44° C 64% 1014.8 hPa - - - -
1788113995 20.56° C 58% 1014.6 hPa - - - -
1788113094 21.67° C 57% 1014.4 hPa - - - -
1788112194 22.22° C 57% 1014.2 hPa - - - -
1788111294 23.33° C 53% 1014.2 hPa - - - -
1788110394 24.44° C 51% 1014.1 hPa - - - -
1788110256 24.44° C 50% 1014 hPa - - - -
1788109602 26.11° C 72% 1013.9 hPa - - - -
1788108702 27.78° C 72% 1013.9 hPa - - - -
1788107802 28.89° C 73% 1014.1 hPa - - - -
1788106902 31.67° C 73% 1014 hPa - - - -
1788106002 31.67° C 73% 1014.2 hPa - - - -
1788105105 31.67° C 73% 1014.2 hPa - - - -
1788104200 32.22° C 73% 1014.3 hPa - - - -
1788103300 32.22° C 73% 1014.3 hPa - - - -
1788102400 32.78° C 73% 1014.4 hPa - - - -
1788101500 32.78° C 73% 1014.6 hPa - - - -
1788100600 32.78° C 73% 1014.6 hPa - - - -
1788099700 32.78° C 73% 1014.8 hPa - - - -
1788098799 32.22° C 73% 1014.8 hPa - - - -
1788097899 32.78° C 73% 1014.9 hPa - - - -
1788096999 32.22° C 73% 1015 hPa - - - -
1788096099 32.78° C 73% 1015.1 hPa - - - -

* Rain since midnight (hover to see other rain measurements)
** Current wind speed in m/s (hover to see current wind gust speed)